Volver al catálogo

BREEZE-M DEB

LostHEO
NORAD 34246·DEBRIS·🇷🇺 Russia

Lanzado Feb 28, 2006 desde Baikonur Cosmodrome

Loading…

Próximos Pases (próximas 24 horas)

TLE

ObsoletoSource: Space-Track

Época: Oct 8, 2021, 22:35 UTC

1 34246U 06006BM  21281.94143599  .00000667  00000-0  47935-3 0  9999
2 34246  51.5578 124.8988 4564335 250.0453  56.3328  6.17951712199758

Sigue BREEZE-M DEB en tiempo real con AllMySat

Download on the App Store